FW4518 Weather Reports


Display with metric or nautical units.
time (UTC)temp
F
wind
direction
speed
MPH
gust
MPH
rain 1hr
in
rain 24hr
in
rain mn
in
humidity
%
barometer
mb
20260503015639 62 8 6.0 9.0 0.00 0.07 0.07 70 1014.3
20260503014644 61 29 4.0 7.0 0.00 0.07 0.07 73 1014.5
20260503013639 62 19 3.0 9.0 0.02 0.07 0.07 72 1014.5
20260503012639 61 23 6.0 10.0 0.07 0.07 0.07 72 1014.2
20260503011638 61 67 7.0 12.0 0.07 0.07 0.07 76 1014.1
20260503010638 60 24 8.0 14.0 0.07 0.07 0.07 78 1014.1
20260503005639 60 22 7.0 12.0 0.07 0.07 0.07 81 1013.9
20260503004638 57 306 4.0 10.0 0.07 0.07 0.07 94 1015.3
20260503003639 62 89 2.0 6.0 0.05 0.05 0.05 78 1015.8
20260503002639 68 154 7.0 12.0 0.00 0.00 0.00 50 1014.7
20260503001639 70 207 6.0 13.0 0.00 0.00 0.00 46 1014.5
20260503000639 74 23 3.0 9.0 0.00 0.00 0.00 40 1013.7
20260502235639 74 13 8.0 12.0 0.00 0.00 0.00 40 1013.1
20260502234639 75 21 9.0 15.0 0.00 0.00 0.00 40 1012.9
20260502233638 75 22 7.0 13.0 0.00 0.00 0.00 39 1012.9
20260502232639 75 10 7.0 11.0 0.00 0.00 0.00 39 1012.9
20260502231639 75 4 8.0 18.0 0.00 0.00 0.00 38 1012.9
20260502230639 75 25 9.0 18.0 0.00 0.00 0.00 38 1013.0
20260502225639 75 22 8.0 12.0 0.00 0.00 0.00 37 1013.2
20260502224639 75 15 7.0 11.0 0.00 0.00 0.00 38 1013.4
20260502223659 75 13 9.0 15.0 0.00 0.00 0.00 39 1013.4
20260502222640 75 4 7.0 11.0 0.00 0.00 0.00 40 1013.4
20260502221639 75 31 9.0 12.0 0.00 0.00 0.00 40 1013.5
20260502220639 76 348 8.0 12.0 0.00 0.00 0.00 41 1013.6
20260502215659 75 29 8.0 12.0 0.00 0.00 0.00 42 1013.7
20260502214639 75 353 9.0 17.0 0.00 0.00 0.00 42 1013.7
20260502213640 75 12 9.0 14.0 0.00 0.00 0.00 43 1013.8
20260502212659 75 23 7.0 13.0 0.00 0.00 0.00 43 1013.9
20260502211639 76 7 7.0 15.0 0.00 0.00 0.00 44 1014.0
20260502210639 75 15 4.0 8.0 0.00 0.00 0.00 45 1014.1
20260502205640 76 15 6.0 12.0 0.00 0.00 0.00 44 1014.4
20260502204641 76 17 7.0 13.0 0.00 0.00 0.00 44 1014.5
20260502203659 75 281 5.0 9.0 0.00 0.00 0.00 45 1014.6
20260502202719 75 2 5.0 8.0 0.00 0.00 0.00 45 1014.6
20260502201639 75 24 3.0 8.0 0.00 0.00 0.00 45 1014.7
20260502200659 74 79 4.0 9.0 0.00 0.00 0.00 47 1014.9
20260502195639 72 38 6.0 11.0 0.00 0.00 0.00 48 1015.1
20260502194719 71 322 7.0 12.0 0.00 0.00 0.00 47 1015.1
20260502193639 71 77 7.0 13.0 0.00 0.00 0.00 48 1015.3
20260502192639 72 22 6.0 11.0 0.00 0.00 0.00 49 1015.3
20260502191639 71 342 5.0 12.0 0.00 0.00 0.00 50 1015.5
20260502190659 70 31 5.0 11.0 0.00 0.00 0.00 52 1015.6
20260502185639 69 342 7.0 10.0 0.00 0.00 0.00 54 1015.7
20260502184639 69 14 5.0 9.0 0.00 0.00 0.00 53 1015.8
20260502183659 68 29 4.0 11.0 0.00 0.00 0.00 55 1015.9
20260502182719 67 343 3.0 6.0 0.00 0.00 0.00 58 1015.9
20260502181639 67 41 4.0 8.0 0.00 0.00 0.00 59 1016.0
20260502180639 67 287 2.0 7.0 0.00 0.00 0.00 58 1016.0
20260502163639 60 163 1.0 3.0 0.00 0.00 0.00 69 1016.3
20260502162702 59 276 0.0 2.0 0.00 0.00 0.00 70 1016.3
20260502161639 58 157 0.0 2.0 0.00 0.00 0.00 69 1016.3
20260502160640 58 0.0 0.0 0.00 0.00 0.00 71 1016.3
20260502151640 54 0.0 1.0 0.00 0.00 0.00 78 1016.3
20260502150640 53 157 1.0 3.0 0.00 0.00 0.00 77 1016.3
20260502130640 46 0.0 0.0 0.00 0.00 0.00 95 1015.7
20260502123700 47 0.0 0.0 0.00 0.00 0.00 91 1015.5
20260502122645 47 0.0 0.0 0.00 0.00 0.00 90 1015.5
20260502121640 47 0.0 0.0 0.00 0.00 0.00 89 1015.5
20260502120640 47 0.0 0.0 0.00 0.00 0.00 88 1015.6
20260502115639 48 0.0 0.0 0.00 0.00 0.00 89 1015.5
20260502114640 48 0.0 0.0 0.00 0.00 0.00 86 1015.5
20260502113640 49 0.0 0.0 0.00 0.00 0.00 85 1015.6
20260502112639 49 0.0 0.0 0.00 0.00 0.00 85 1015.6
20260502111640 50 0.0 0.0 0.00 0.00 0.00 85 1015.6
20260502110640 50 0.0 0.0 0.00 0.00 0.00 84 1015.6
20260502105640 51 0.0 0.0 0.00 0.00 0.00 81 1015.6
20260502104642 51 0.0 0.0 0.00 0.00 0.00 80 1015.5
20260502103640 53 0.0 0.0 0.00 0.00 0.00 77 1015.5
20260502102640 52 0.0 0.0 0.00 0.00 0.00 78 1015.5
20260502101640 54 0.0 0.0 0.00 0.00 0.00 75 1015.5
20260502100640 54 0.0 0.0 0.00 0.00 0.00 74 1015.4
20260502090640 58 0.0 0.0 0.00 0.00 0.00 66 1015.3
20260502070640 62 172 1.0 3.0 0.00 0.00 0.00 63 1016.3
20260502065700 62 257 2.0 4.0 0.00 0.00 0.00 62 1016.3
20260502064640 61 128 3.0 6.0 0.00 0.00 0.00 66 1016.3
20260502063640 61 208 0.0 1.0 0.00 0.00 0.00 69 1015.9
20260502062640 63 0.0 0.0 0.00 0.00 0.00 61 1015.5
20260502061640 63 348 1.0 3.0 0.00 0.00 0.00 61 1015.2
20260502060640 63 3 2.0 4.0 0.00 0.00 0.00 61 1015.1
20260502055641 63 36 0.0 2.0 0.00 0.00 0.00 61 1015.1
20260502054640 64 26 4.0 7.0 0.00 0.00 0.00 60 1015.0
20260502053640 64 17 2.0 8.0 0.00 0.00 0.00 59 1015.0
20260502052700 64 0 3.0 6.0 0.00 0.00 0.00 58 1014.9
20260502051641 65 18 4.0 6.0 0.00 0.00 0.00 57 1014.9
20260502050641 66 23 5.0 9.0 0.00 0.00 0.00 56 1014.9
20260502045640 66 14 5.0 9.0 0.00 0.00 0.00 54 1015.0
20260502044640 66 9 4.0 8.0 0.00 0.00 0.00 53 1014.9
20260502043700 67 20 3.0 7.0 0.00 0.00 0.00 52 1014.7
20260502042641 67 15 3.0 6.0 0.00 0.00 0.00 52 1014.5
20260502041641 68 32 7.0 11.0 0.00 0.00 0.00 51 1014.1
20260502040640 68 38 6.0 12.0 0.00 0.00 0.00 50 1013.9
20260502035640 68 18 6.0 9.0 0.00 0.00 0.00 49 1013.7
20260502034701 69 348 8.0 12.0 0.00 0.00 0.00 48 1013.6
20260502033640 69 352 8.0 13.0 0.00 0.00 0.00 48 1013.8
20260502032641 69 1 7.0 12.0 0.00 0.00 0.00 48 1013.5
20260502031641 70 350 8.0 16.0 0.00 0.00 0.00 48 1013.2
20260502030640 71 9 6.0 9.0 0.00 0.00 0.00 46 1013.3
20260502025640 71 351 8.0 13.0 0.00 0.00 0.00 45 1013.1
20260502024701 73 30 8.0 12.0 0.00 0.00 0.00 41 1013.0
20260502023641 73 19 9.0 15.0 0.00 0.00 0.00 40 1013.0
20260502022700 75 24 9.0 15.0 0.00 0.00 0.00 34 1012.8
20260502021641 75 20 6.0 12.0 0.00 0.00 0.00 33 1012.7
20260502020641 76 1 4.0 9.0 0.00 0.00 0.00 33 1012.8